Regional Weather Roundup
Issued by NWS

Home | Current Version | Previous Version | Graphics & Text | Print | Product List | Glossary On
Versions: 1 2 3 4 5 6 7 8 9 10 11 12 13 14 15 16 17 18 19 20 21 22 23 24 25 26 27 28 29 30 31 32 33 34 35 36 37 38 39 40 41 42 43 44 45 46 47 48 49 50
000
ASUS43 KMKX 251000
RWRWI

WISCONSIN REGIONAL WEATHER ROUNDUP
NATIONAL WEATHER SERVICE MILWAUKEE/SULLIVAN WI
500 AM CDT SAT APR 25 2015

NOTE: "FAIR" INDICATES FEW OR NO CLOUDS BELOW 12,000 FEET WITH NO
SIGNIFICANT WEATHER AND/OR OBSTRUCTIONS TO VISIBILITY.

WIZ001-002-006>008-014>016-023>028-251100-
NORTHWEST WISCONSIN

CITY           SKY/WX    TMP DP  RH WIND       PRES   REMARKS
SUPERIOR ARPT  CLOUDY    35  31  86 NE14G20   29.95R WCI  26
ASHLAND        CLOUDY    36  31  82 NE12      29.96R WCI  28
HAYWARD        CLOUDY    41  32  70 VRB3      29.90R
SIREN          CLOUDY    44  33  66 E6        29.88R
CUMBERLAND     CLOUDY    39  32  75 SE8       29.87S WCI  34
RICE LAKE      CLOUDY    41  32  69 E9G16     29.89S
CHETEK         CLOUDY    41  32  71 E8        29.88S
LADYSMITH      CLOUDY    41  31  67 E6        29.91S
EAU CLAIRE     CLOUDY    41  33  73 E14       29.87R
MENOMONIE      CLOUDY    42  35  78 E9        29.87R
NEW RICHMOND   CLOUDY    42  35  76 E10       29.85R
OSCEOLA        CLOUDY    43  35  73 E9        29.88R
$$

WIZ003>005-009-010-017-018-251100-
NORTH CENTRAL WISCONSIN

CITY           SKY/WX    TMP DP  RH WIND       PRES   REMARKS
MANITOWISH WTR CLOUDY    38  26  64 E5        29.92R WCI  34
ARBOR VITAE    CLOUDY    39  23  52 SE6       29.92R WCI  35
WOODRUFF       CLOUDY    39  23  52 SE6       29.92R WCI  35
RHINELANDER    CLOUDY    36  19  50 E9        29.93R WCI  29
EAGLE RIVER    CLOUDY    36  17  46 SE5       29.93R WCI  32
LAND O LAKES   CLOUDY    36  21  55 SE3       29.94S
PHILLIPS       CLOUDY    37  25  60 E5        29.90S WCI  34
TOMAHAWK       CLOUDY    37  17  44 CALM      29.92R
MEDFORD        CLOUDY    37  25  62 E7        29.89S WCI  31
MERRILL        CLOUDY    38  21  52 E6        29.91S WCI  33
$$

WIZ029-030-035-036-043>047-251100-
CENTRAL WISCONSIN

CITY           SKY/WX    TMP DP  RH WIND       PRES   REMARKS
WAUSAU         CLOUDY    37  23  56 E8        29.90R WCI  31
MOSINEE        CLOUDY    36  23  60 E8        29.91R WCI  29
MARSHFIELD     CLOUDY    37  30  75 E9        29.88R WCI  30
STEVENS POINT  CLOUDY    35  26  70 E7        29.91R WCI  29
WAUPACA        CLOUDY    40  29  67 CALM      29.91F
WAUTOMA        NOT AVBL
WISC RAPIDS    CLOUDY    37  31  78 E9        29.89F WCI  30
CAMP DOUGLAS   NOT AVBL
$$

WIZ011>013-019>022-031-037>040-048>050-251100-
NORTHEAST WISCONSIN

CITY           SKY/WX    TMP DP  RH WIND       PRES   REMARKS
ANTIGO         CLOUDY    35  20  55 E8        29.92S WCI  28
SHAWANO        CLOUDY    40  26  59 NE10      29.94R WCI  33
OCONTO         MOCLDY    37  23  56 NE8       29.94S WCI  31
STURGEON BAY   CLOUDY    36  21  55 E8        29.97R WCI  29
GREEN BAY      CLOUDY    40  27  59 NE8       29.93R WCI  34
MANITOWOC      NOT AVBL
APPLETON       CLOUDY    37  27  65 NE7       29.91S WCI  32
CLINTONVILLE   CLOUDY    37  23  56 NE9       29.92S WCI  31
OSHKOSH        CLOUDY    40  34  79 E6        29.90R
$$

WIZ032>034-041-042-053>061-251100-
SOUTHWEST WISCONSIN

CITY           SKY/WX    TMP DP  RH WIND       PRES   REMARKS
LA CROSSE      CLOUDY    42  36  79 E7        29.82F
SPARTA         CLOUDY    39  35  84 E10       29.84F WCI  32
VIROQUA        CLOUDY    38  36  92 E17       29.80S WCI  29
BOSCOBEL       CLOUDY    42  34  73 NE8       29.81F
PRAIRIE DU CHI CLOUDY    42  34  73 E8        29.78F
PLATTEVILLE    CLOUDY    40  36  83 E15       29.77S WCI  32
$$

WIZ056-057-062-063-064-067-068-251100-
SOUTH CENTRAL WISCONSIN

CITY           SKY/WX    TMP DP  RH WIND       PRES   REMARKS
REEDSBURG      CLOUDY    38  34  87 E6        29.84S WCI  33
BARABOO/DELLS  CLOUDY    38  33  84 E8        29.84F WCI  32
LONE ROCK      NOT AVBL
MINERAL POINT  CLOUDY    41  36  81 E10G18    29.78F
MADISON        CLOUDY    40  33  76 MISG      29.83F
MIDDLETON      CLOUDY    41  34  75 E8        29.83F
WATERTOWN      CLOUDY    39  35  88 E10       29.85S WCI  32
MONROE         CLOUDY    39  36  87 NE13G18   29.78F WCI  32
JANESVILLE     CLOUDY    41  36  81 E8        29.80F
$$

WIZ051-052-058>065-066-070>072-251100-
SOUTHEAST WISCONSIN

CITY           SKY/WX    TMP DP  RH WIND       PRES   REMARKS
MILWAUKEE      CLOUDY    40  35  83 E12       29.87F WCI  33
WAUKESHA       CLOUDY    36  32  87 E9        29.87S WCI  29
MILWAUKEE/TIMM CLOUDY    37  32  81 NE5       29.88S WCI  34
RACINE         CLOUDY    40  36  86 E12       29.87F WCI  33
BURLINGTON     CLOUDY    39  35  85 E12       29.84S WCI  32
KENOSHA        CLOUDY    41  37  86 E14       29.84F
FOND DU LAC    CLOUDY    40  33  76 E10       29.88S WCI  33
SHEBOYGAN      CLOUDY    35  33  92 NE3       29.91R
WEST BEND      CLOUDY    37  34  87 E6        29.88S WCI  33
JUNEAU         CLOUDY    38  33  82 E12       29.87F WCI  31
$$

LSZ147-162-251100-
LAKE SUPERIOR

STATION/POSITION TIME  TEMP    WIND        PRES    WAVE
                       AIR SEA DIR/SP/G            HT/PER
                 (UTC) (F)     (DEG/KT/KT) (MB)    (FT/S)
W MID LAKE BUOY  0850   34 34   60/ 16/ 17 1016.8S   3/ 4
DEVILS ISLAND    0900   35      60/ 20/ 24 1015.6R
PORT WING        0900   37      40/ 15/ 17 1013.9S
SAXON HARBOR     0900   38      CALM  /  2 1013.5S
$$

LMZ867-665-643>646-251100-
LAKE MICHIGAN

STATION/POSITION TIME  TEMP    WIND        PRES    WAVE
                       AIR SEA DIR/SP/G            HT/PER
                 (UTC) (F)     (DEG/KT/KT) (MB)    (FT/S)
CHAMBERS ISLAND  0900   37      80/  9/ 12 1015.2S
NORTHPORT PIER   0900   36      90/ 11/ 13 1015.2F
SISTER BAY       0947   36     110/  8/ 13   N/A
KEWAUNEE LAKESHO 0900   37      60/  8/ 13 1012.9F
SHEBOYGAN LAKESH 0900   38      20/  9/ 10 1013.4F
PORT WASHINGTON  0900   40      50/  4/  8 1012.9S
MILWAUKEE LAKESH 0900   39      40/  6/  8   N/A
KENOSHA   LAKESH 0900   40      90/ 17/ 19 1011.2F
$$

TC  - TEMPERATURE IN CELSIUS
VSB - VISIBILITY IN STATUTE MILES
WCI - WIND CHILL INDEX
HX  - HEAT INDEX



USA.gov is the U.S. government's official web portal to all federal, state and local government web resources and services.